Simultaneous Nadir Overpasses (SNOs) Predictions

Prediction of SNOs between AQUA and NPP Satellite Orbit:

Table of predicted SNOs for the next 14.0 days since TLE Epoch: 4/7/2012
Index Date (AQUA) Time (AQUA) Lat,Lon (AQUA) SZA (AQUA ) Date (NPP) Time (NPP) Lat,Lon (NPP) SZA (NPP ) Distance(km) Time Diff (sec)
1 04/08/2012 14:54:47 77.15,-160.65 88.55 04/08/2012 14:54:14 77.16,-160.65 88.58 0.05 33
2 04/08/2012 15:44:00 -77.81, 9.67 92.28 04/08/2012 15:44:44 -77.81, 9.63 92.30 0.89 44
3 04/11/2012 07:11:14 77.30, -44.19 87.36 04/11/2012 07:11:05 77.29, -44.28 87.39 2.49 9
4 04/11/2012 08:00:22 -78.17, 127.22 93.75 04/11/2012 08:01:29 -78.18, 127.32 93.82 2.62 67
5 04/13/2012 22:38:25 -76.98, -97.20 93.22 04/13/2012 22:37:22 -76.98, -97.15 93.18 1.14 63
6 04/13/2012 23:27:37 77.60, 72.92 86.00 04/13/2012 23:27:52 77.60, 72.86 86.01 1.65 15
7 04/16/2012 14:54:50 -77.12, 19.22 94.36 04/16/2012 14:54:12 -77.12, 19.18 94.32 1.03 38
8 04/16/2012 15:43:56 78.00,-169.43 84.53 04/16/2012 15:44:35 78.01,-169.33 84.48 2.66 39
9 04/19/2012 07:11:11 -77.46, 136.44 95.72 04/19/2012 07:10:58 -77.46, 136.45 95.71 0.25 13




NCC Satellite Simultaneous Nadir Overpasses (SNOs) Prediction Service
